STARLINK-11611, 63138

Orbit data source: Space-Track

STARLINK-11611, 63138 is a payload satellite owned by SpaceX/Seattle (US) in LEO that was launched on Mon, 03 Mar 2025 UTC via an FALCON 9 launch vehicle from the Air Force Eastern Test Range (AFETR). Payload-class satellites include a variety of spacecraft equipped with specific instruments for various scientific and technological missions. These include communications satellites like Starlink; space stations such as the ISS; scientific satellites like the Hubble; Earth observation satellites from companies like Planet Labs, Umbra, and HawkEye 360; GPS; miniature CubeSats for education and research; and military/defense satellites.

Loading next visibility...
Identifier
63138, 2025-043G
Orbit
LEO
Country
Flag of USUS
Related business
Manufacturer
SpaceX/Seattle
Mission
Operational Commercial Communications
Bus & Motor
STARLINK V2MD, Unknown motor
Mass
960 kg wet, ~910 kg dry
Launch date (UTC)
2025-03-03 (11 months ago)
Launch vehicle
FALCON 9
Launch site
Air Force Eastern Test Range (AFETR)
Object type
Payload
Rocket body
Debris
Shape & HBR
Box + 2 Pan, 18.1 m
Radar Cross Section
36.964 m², Large (>1 m²)

Expand to show TLE details & history
Last TLE update: 6 hours ago

TLE from 6 hours ago
0 STARLINK-11611
1 63138U 25043G   26037.15389160  .00300229  00000-0  22467-2 0  9995
2 63138  42.9998  80.6874 0001624 219.0330 141.0421 15.70977754 54518
Epoch: 2026-02-06T03:41Z
TLE epoch observation values (Epoch: 2026-02-06T03:41:36.234Z)
Latitude
0.00002°
Longitude
-111.00941°
Altitude
356.723 km
Speed
7.697 km/s
True Right ascension
05h 22m 44s
True Declination
0° 00' 00"
Sunlit
Object was in full shadow at epoch
Visualization orbit readout
Latitude
Unknown
Longitude
Unknown
Altitude
Unknown
Speed
Unknown
Apparent Right ascension
Unknown
Apparent Declination
Unknown
Sunlit
N/A
Visualization observer readout
Local Sidereal Time
11:37:00
Azimuth
Unknown
Elevation
Unknown
Doppler factor
Unknown
Orbital elements
Apogee altitude
359.177 km
Perigee altitude
356.989 km
Semi-major axis
6,736.22 km
Eccentricity
0.00016
Inclination
42.9998°
RAAN
80.6874°
Arg. of periapsis
219.033°
True anomaly
141.0538°
Mean anomaly
141.0421°
Eccentric anomaly
141.04795°
Mean motion
3.92571 °/min
Orbital period
91.7 mins
BSTAR
0.0022467
Loading maneuver chart data...
Computing Atmospheric mass density...
Loading historical data...
Loading historical data...
Loading historical data...
Loading historical data...
Loading historical data...
Loading historical data...
Loading historical data...

Documentation

Showing up to 5 results
|